International Skating Union - Official Site

ISU World Cup Inzell
December 4-6, 2015

Draw | Lap Times | Index | World Cup

Referee: Erik  ØSMUNDSET  (NOR)
Starter: Bartosz  DAWIDOWSKI  (POL)
StartTime: EndTime: Air Temp: Ice Temp: Humidity:
13:03 13:40 12.4℃ -6.5℃ 34%
Result 3000m Ladies Division B
Rankings as of Dec 6 2015 6:51PM
Rank: No.: Name: Nation: Time: Behind: Points:
1 242 Nana  Takagi JPN JPN 4:07.98200m - 20.28 - (20.2)
600m - 52.18 - (31.8)
1000m - 1:24.79 - (32.6)
1400m - 1:57.12 - (32.3)
1800m - 2:29.88 - (32.7)
2200m - 3:02.40 - (32.5)
2600m - 3:35.15 - (32.7)
3000m - 4:07.98 - (32.8)
32
2 237 Ayaka  Kikuchi JPN JPN 4:08.21200m - 20.01 - (20.0)
600m - 51.59 - (31.5)
1000m - 1:23.59 - (32.0)
1400m - 1:55.90 - (32.3)
1800m - 2:28.46 - (32.5)
2200m - 3:01.37 - (32.9)
2600m - 3:34.87 - (33.5)
3000m - 4:08.21 - (33.3)
0.23 27
3 234 Francesca  Lollobrigida ITA ITA 4:09.01200m - 20.06 - (20.0)
600m - 51.45 - (31.3)
1000m - 1:23.05 - (31.5)
1400m - 1:55.48 - (32.4)
1800m - 2:28.04 - (32.5)
2200m - 3:01.41 - (33.3)
2600m - 3:34.99 - (33.5)
3000m - 4:09.01 - (34.0)
1.03 23
4 282 Luiza  Zlotkowska POL POL 4:10.52200m - 20.18 - (20.1)
600m - 51.60 - (31.4)
1000m - 1:23.20 - (31.6)
1400m - 1:55.33 - (32.1)
1800m - 2:28.14 - (32.8)
2200m - 3:01.46 - (33.3)
2600m - 3:35.78 - (34.3)
3000m - 4:10.52 - (34.7)
2.54 19
5 206 Marina  Zuyeva BLR BLR 4:10.53200m - 20.78 - (20.7)
600m - 53.27 - (32.4)
1000m - 1:25.84 - (32.5)
1400m - 1:58.50 - (32.6)
1800m - 2:30.82 - (32.3)
2200m - 3:03.72 - (32.9)
2600m - 3:36.65 - (32.9)
3000m - 4:10.53 - (33.8)
2.55 15
6 230 Bente  Kraus GER GER 4:11.16 (3) 200m - 21.22 - (21.2)
600m - 52.97 - (31.7)
1000m - 1:25.12 - (32.1)
1400m - 1:57.68 - (32.5)
1800m - 2:30.84 - (33.1)
2200m - 3:03.84 - (33.0)
2600m - 3:37.56 - (33.7)
3000m - 4:11.16 - (33.5)
3.18 11
7 220 Xin  Zhao CHN CHN 4:11.16 (8) 200m - 21.16 - (21.1)
600m - 53.09 - (31.9)
1000m - 1:25.99 - (32.8)
1400m - 1:58.44 - (32.4)
1800m - 2:31.00 - (32.5)
2200m - 3:03.71 - (32.7)
2600m - 3:37.32 - (33.6)
3000m - 4:11.16 - (33.8)
3.18 9
8 280 Katarzyna  Wozniak POL POL 4:11.42200m - 20.60 - (20.6)
600m - 52.31 - (31.7)
1000m - 1:24.44 - (32.1)
1400m - 1:56.72 - (32.2)
1800m - 2:29.26 - (32.5)
2200m - 3:02.33 - (33.0)
2600m - 3:36.21 - (33.8)
3000m - 4:11.42 - (35.2)
3.44 7
9 212 Josie  Spence CAN CAN 4:11.72200m - 20.72 - (20.7)
600m - 52.88 - (32.1)
1000m - 1:25.18 - (32.3)
1400m - 1:58.04 - (32.8)
1800m - 2:30.95 - (32.9)
2200m - 3:04.22 - (33.2)
2600m - 3:37.72 - (33.5)
3000m - 4:11.72 - (34.0)
3.74 6
10 239 Fuyo  Matsuoka JPN JPN 4:11.84200m - 20.61 - (20.6)
600m - 52.18 - (31.5)
1000m - 1:24.21 - (32.0)
1400m - 1:57.15 - (32.9)
1800m - 2:30.36 - (33.2)
2200m - 3:03.97 - (33.6)
2600m - 3:37.78 - (33.8)
3000m - 4:11.82 - (34.0)
3.86 5
11 215 Jiachen  Hao CHN CHN 4:12.27200m - 20.30 - (20.3)
600m - 51.52 - (31.2)
1000m - 1:23.34 - (31.8)
1400m - 1:55.95 - (32.6)
1800m - 2:29.20 - (33.2)
2200m - 3:03.25 - (34.0)
2600m - 3:37.90 - (34.6)
3000m - 4:12.27 - (34.3)
4.29 4
12 203 Jelena  Peeters BEL BEL 4:12.41200m - 20.49 - (20.4)
600m - 52.72 - (32.2)
1000m - 1:25.16 - (32.4)
1400m - 1:58.31 - (33.1)
1800m - 2:31.82 - (33.5)
2200m - 3:05.07 - (33.2)
2600m - 3:38.91 - (33.8)
3000m - 4:12.41 - (33.5)
4.43 3
13 277 Natalia  Czerwonka POL POL 4:12.49200m - 20.47 - (20.4)
600m - 51.76 - (31.2)
1000m - 1:23.68 - (31.9)
1400m - 1:56.02 - (32.3)
1800m - 2:28.85 - (32.8)
2200m - 3:02.60 - (33.7)
2600m - 3:37.21 - (34.6)
3000m - 4:12.49 - (35.2)
4.51 2
14 251 Do-Young  Park KOR KOR 4:15.23200m - 20.98 - (20.9)
600m - 53.35 - (32.3)
1000m - 1:26.50 - (33.1)
1400m - 1:59.77 - (33.2)
1800m - 2:33.77 - (34.0)
2200m - 3:07.57 - (33.7)
2600m - 3:41.40 - (33.8)
3000m - 4:15.23 - (33.8)
7.25 1
15 224 Nikola  Zdráhalová CZE CZE 4:15.77200m - 20.35 - (20.3)
600m - 52.49 - (32.1)
1000m - 1:25.06 - (32.5)
1400m - 1:58.23 - (33.1)
1800m - 2:32.11 - (33.8)
2200m - 3:06.13 - (34.0)
2600m - 3:40.99 - (34.8)
3000m - 4:15.77 - (34.7)
7.79 0
16 232 Francesca  Bettrone ITA ITA 4:18.68200m - 21.57 - (21.5)
600m - 54.76 - (33.1)
1000m - 1:28.52 - (33.7)
1400m - 2:02.60 - (34.0)
1800m - 2:36.60 - (34.0)
2200m - 3:11.09 - (34.4)
2600m - 3:45.07 - (33.9)
3000m - 4:18.68 - (33.6)
10.70 0
17 218 Jing  Liu CHN CHN 4:19.04200m - 20.36 - (20.3)
600m - 52.58 - (32.2)
1000m - 1:25.91 - (33.3)
1400m - 1:59.84 - (33.9)
1800m - 2:33.85 - (34.0)
2200m - 3:08.36 - (34.5)
2600m - 3:43.36 - (35.0)
3000m - 4:19.04 - (35.6)
11.06 0
18 225 Saskia  Alusalu EST EST 4:19.68200m - 20.96 - (20.9)
600m - 53.30 - (32.3)
1000m - 1:26.30 - (33.0)
1400m - 1:59.90 - (33.6)
1800m - 2:33.81 - (33.9)
2200m - 3:08.34 - (34.5)
2600m - 3:43.51 - (35.1)
3000m - 4:19.68 - (36.1)
11.70 0
19 274 Sofie-Karoline  Haugen NOR NOR 4:20.20200m - 21.06 - (21.0)
600m - 54.25 - (33.1)
1000m - 1:27.70 - (33.4)
1400m - 2:01.78 - (34.0)
1800m - 2:35.71 - (33.9)
2200m - 3:10.05 - (34.3)
2600m - 3:44.91 - (34.8)
3000m - 4:20.20 - (35.2)
12.22 0
20 252 Ji-Woo  Park KOR KOR 4:20.58200m - 20.84 - (20.8)
600m - 53.27 - (32.4)
1000m - 1:26.83 - (33.5)
1400m - 2:01.21 - (34.3)
1800m - 2:35.92 - (34.7)
2200m - 3:10.67 - (34.7)
2600m - 3:45.50 - (34.8)
3000m - 4:20.58 - (35.0)
12.60 0
21 278 Aleksandra  Goss POL POL 4:21.14200m - 20.32 - (20.3)
600m - 52.46 - (32.1)
1000m - 1:24.96 - (32.4)
1400m - 1:58.41 - (33.4)
1800m - 2:32.57 - (34.1)
2200m - 3:07.99 - (35.4)
2600m - 3:44.08 - (36.0)
3000m - 4:21.14 - (37.0)
13.16 0
22 202 Viola  Feichtner AUT AUT 4:26.43200m - 21.59 - (21.5)
600m - 54.98 - (33.3)
1000m - 1:28.85 - (33.8)
1400m - 2:03.13 - (34.2)
1800m - 2:38.24 - (35.1)
2200m - 3:13.77 - (35.5)
2600m - 3:49.91 - (36.1)
3000m - 4:26.43 - (36.5)
18.45 0